User: anonymous   Login
Location: Newark
(47.5833°N, 8.1500°E)
Time: 14:10:03
(UTC+00:00)
Language:

S-56A Canister/Altair - Orbit

View from above orbital plane
View from above orbital plane
View from above satellite
View from above satellite

Ground track
Ground track

The orbit data is extracted from the following two-line orbital elements,

1    82U 61004B   20304.56759251 -.00000093 +00000-0 -28003-4 0  9991
2    82 038.8586 058.0795 1174735 015.6841 347.7226 12.26056355824399
Epoch (UTC): 30 October 2020 13:37:19
Eccentricity: 0.1174735
inclination: 38.8586°
perigee height: 633 km
apogee height: 2499 km
right ascension of ascending node: 58.0795°
argument of perigee: 15.6841°
revolutions per day: 12.26056355
mean anomaly at epoch: 347.7226°
orbit number at epoch: 82439

The dashed part of the orbit path shows where the satellite is in the earth's shadow,  

DLR